Location: Mentone
(34.5413°N, 85.5351°W)
Time: 12:30:06
(UTC-05:00)

Vanguard 2 Rocket - Visible Passes

Search period start: 30 October 2014 00:00
Search period end: 08 November 2014 23:00
Orbit: 554 x 3335 km, 32.9° (Epoch: 29 October)

Date Brightness Start Highest point End Pass type
(mag) Time Alt. Az. Time Alt. Az. Time Alt. Az.
30 Oct 7.9 04:12:14 37° ESE 04:12:14 37° ESE 04:16:39 10° ESE visible
30 Oct 8.3 06:18:09 10° W 06:23:31 37° SSW 06:32:21 10° SE visible
31 Oct 7.3 05:23:13 34° WSW 05:24:59 44° SSW 05:32:37 10° SE visible
01 Nov 7.7 04:28:18 39° SE 04:28:18 39° SE 04:33:04 10° ESE visible
01 Nov 8.7 06:35:24 10° WSW 06:40:15 24° SSW 06:47:20 10° SSE visible
02 Nov 9.4 02:33:24 12° ESE 02:33:24 12° ESE 02:33:50 10° ESE visible
02 Nov 7.9 04:39:19 21° WSW 04:41:39 29° SSW 04:48:12 10° SE visible
03 Nov 7.8 03:44:25 32° S 03:44:25 32° S 03:49:06 10° SE visible
04 Nov 9.2 02:49:32 13° SE 02:49:32 13° SE 02:50:10 10° ESE visible
04 Nov 8.5 04:55:28 12° SW 04:58:22 17° SSW 05:02:48 10° SSE visible
04 Nov 9.5 19:04:33 10° S 19:06:48 12° SSE 19:06:48 12° SSE visible
05 Nov 8.2 04:00:35 21° S 04:00:35 21° S 04:04:28 10° SSE visible
05 Nov 9.7 20:16:17 10° SSW 20:17:52 14° SSW 20:17:52 14° SSW visible
06 Nov 9.2 03:05:44 11° SE 03:05:44 11° SE 03:06:04 10° SE visible
06 Nov 9.1 19:17:12 10° SSW 19:23:00 21° S 19:23:00 21° S visible
07 Nov 8.8 04:16:48 11° SSW 04:16:48 11° SSW 04:17:53 10° S visible
07 Nov 9.2 18:18:22 10° SSW 18:25:24 18° SSE 18:28:06 16° SE visible
07 Nov 9.6 20:31:38 10° SW 20:34:02 17° SW 20:34:02 17° SW visible
08 Nov 9.6 17:20:16 10° S 17:26:08 14° SSE 17:30:51 10° SE visible
08 Nov 8.8 19:31:52 10° SW 19:39:08 31° S 19:39:08 31° S visible
